Other Surface Observations
Issued by NWS Tucson, AZ

Home | Current Version | Previous Version | Text Only | Print | Product List | Glossary On
Versions: 1 2 3 4 5 6 7 8 9 10 11 12 13 14 15 16 17 18 19 20 21 22 23 24 25 26 27 28 29 30 31 32 33 34 35 36 37 38 39 40 41 42 43 44 45 46 47 48 49 50
000
SXUS55 KTWC 192115
OSOTWC

WEATHER ROUNDUP FOR SOUTHEAST ARIZONA
NATIONAL WEATHER SERVICE TUCSON AZ
215 PM MST SAT APR 19 2014

AZZ504>506-514-192215-
LOCATION       SKY/WX    TMP DP  RH WIND       PRES   REMARKS
TUCSON         PTSUNNY   78  39  24 NW7       29.99F
DAVIS-MONTHAN  PTSUNNY   75  41  29 N6        29.97F
CHILDRENS PARK N/A       77 N/A N/A NW7               PIMA CO DEQ
ALVERNON/22ND  N/A       77 N/A N/A NW5               PIMA CO DEQ
CHERRY/GLENN   N/A      N/A N/A N/A N/A               PIMA CO DEQ
TANGERINE      N/A       78 N/A N/A NW6               PIMA CO DEQ
CONTL RANCH    N/A       79  40  25 N3                PIMA CO DEQ
GRANT/1ST      N/A       76  42  29 NW6               PIMA CO DEQ
CRAYCROFT/22ND N/A       76  42  30 W9                PIMA CO DEQ
GOLFLINKS/KOLB N/A      N/A N/A N/A N/A               PIMA CO DEQ
AJO/12TH       N/A       76  40  28 W5                PIMA CO DEQ
SAGUARO EAST   N/A       76  43  31 W4                PIMA CO DEQ
FAIRGROUNDS    N/A       74 N/A N/A NW6               PIMA CO DEQ
SAGUARO        N/A       79  45  30 S5G12             *SABINO CYN
SAN CARLOS     N/A       68  46  45 SE10G15           *SAN CARLOS
GREEN VALLEY   N/A       76  39  26 NE6               PIMA CO DEQ
HORSE CAMP CYN N/A       59  48  67 E8G17             *ARAVAIPA CYN
RINCON MTNS    N/A       52  39  61 W3                *NR MANNING CAMP
$$

AZZ509>511-192215-
LOCATION       SKY/WX    TMP DP  RH WIND       PRES   REMARKS
SAFFORD        LGT RAIN  67  40  37 NW23      29.99F
STRAY HORSE    N/A       54  31  42 E4G10             *
TRAIL CABIN    N/A       60  36  40 SE8G13            *N OF GRANVILLE
BLACK HILLS    N/A       67  38  35 SE7G23            *N OF FT THOMAS
DRY LAKE       N/A       47  37  69 SW8G15            *NATANES MTNS
NOON CREEK     N/A       60  51  72 SW3G10            *PINALENO MTNS
COLUMBINE      N/A       36  29  74 SE2G15            *PINALENO MTNS
GUTHRIE        N/A       64  39  39 SW7G15            *SW OF GUTHRIE
$$

AZZ502-503-513-192215-
LOCATION       SKY/WX    TMP DP  RH WIND       PRES   REMARKS
NOGALES        TSTM      68  39  34 W18G24    30.04R
SELLS          N/A       81  41  24 SW4G13            *
SASABE         N/A       74  39  28 S6G13             *ALTAR VLY
HOPKINS        N/A       66  38  36 W11G17            *SANTA RITA MTNS
CARR CYN       N/A       66  40  38 N4G14             *W OF HEREFORD
$$

AZZ507-508-512-192215-
LOCATION       SKY/WX    TMP DP  RH WIND       PRES   REMARKS
SIERRA VISTA   PTSUNNY   72  38  29 W15G22    30.03F
DOUGLAS        LGT RAIN  64  53  67 CALM      30.02S
EMPIRE MTNS    N/A       68  41  37 NW6G17            *LAS CIENEGAS NCA
MULESHOE RANCH N/A       71  40  33 NW13G22           *PRESERVE
HEADQUARTERS   N/A       63  43  48 S5G16             *CHIRICAHUA MTNS
$$

.............................NOTES.............................
THIS IS AN AUTOMATED COLLECTIVE WITH MINIMAL QUALITY CONTROL.
PIMA CO DEQ SITES HAVE NONSTANDARD WIND SENSOR HEIGHTS.
PIMA CO DEQ SITES DO NOT REPORT WIND GUSTS.
* INDICATES WIND SENSORS LOCATED AT 20 FEET INSTEAD OF 33 FEET.
..............................KEY..............................
SKY/WX - SKY CONDITION/WEATHER
TMP    - TEMPERATURE IN FAHRENHEIT
DP     - DEWPOINT IN FAHRENHEIT
RH     - RELATIVE HUMIDITY IN PERCENT
WIND   - DIRECTION AND SPEED IN MILES PER HOUR (MPH)
VRB    - VARIABLE WIND DIRECTION
PRES   - MEAN SEA LEVEL PRESSURE IN INCHES OF MERCURY
         F - FALLING PRESSURE   R - RISING PRESSURE
         S - STEADY PRESSURE
VSB    - VISIBILITY IN MILES
HX     - HEAT INDEX IN FAHRENHEIT
WCI    - WIND CHILL INDEX IN FAHRENHEIT
N/A    - NOT AVAILABLE
AFB    - AIR FORCE BASE
         DAVIS-MONTHAN IS DAVIS-MONTHAN AIR FORCE BASE
CYN    - CANYON
MTNS   - MOUNTAINS
NCA    - NATIONAL CONSERVATION AREA
NR     - NEAR
VLY    - VALLEY
CONTL  - CONTINENTAL
PIMA CO DEQ - PIMA COUNTY DEPT OF ENVIRONMENTAL QUALITY



USA.gov is the U.S. government's official web portal to all federal, state and local government web resources and services.